Weather History for Francistown, Botswana

Change the Weather History Date:

Friday, March 7, 2014

  Actual Average Record
Temperature  
Mean Temperature 72 °F -  
Max Temperature 77 °F 83 °F 96 °F (2002)
Min Temperature 66 °F 62 °F 60 °F (2006)
Cooling Degree Days 6    
Growing Degree Days 22 (Base 50)    
Moisture  
Dew Point 68 °F    
Average Humidity 91    
Maximum Humidity 100    
Minimum Humidity 73    
Precipitation  
Precipitation 0.00 in - - ()
Sea Level Pressure  
Sea Level Pressure 30.04 in    
Wind  
Wind Speed 5 mph ()    
Max Wind Speed 14 mph    
Max Gust Speed -    
Visibility 5.8 miles    
Events Rain , Thunderstorm    
Averages and records for this station are not official NWS values.
T = Trace of Precipitation, MM = Missing Value Source: Averaged Metar Reports

Daily Weather History Graph

Daily Weather History Graph

Search for Another Location

Airport:

Trip Planner

Search our weather history database for the weather conditions in past years. The results will help you decide how hot, cold, wet, or windy it might be!

Date:

Astronomy

Mar. 07, 2014 Rise Set
Actual Time 6:09 AM CAT 6:32 PM CAT
Civil Twilight 5:46 AM CAT 6:54 PM CAT
Nautical Twilight 5:20 AM CAT 7:20 PM CAT
Astronomical Twilight 4:54 AM CAT 7:47 PM CAT
Moon 11:48 AM CAT (3/7) 11:10 PM CAT (3/7)
Length of Visible Light 13h 07m
Length of Day
12h 23m
Waxing Crescent, 39% of the Moon is Illuminated
Mar 7
Waxing Crescent
Mar 8
First Quarter
Mar 16
Full
Mar 24
Last Quarter
Mar 30
New

Hourly Weather History & Observations

Time (CAT) Temp. Dew Point Humidity Pressure Visibility Wind Dir Wind Speed Gust Speed Precip Events Conditions
12:00 AM 69.8 °F 69.8 °F 100% 30.04 in 6.2 mi SE 6.9 mph - N/A Rain Light Rain
1:00 AM 69.8 °F 69.8 °F 100% 30.04 in 6.2 mi NW 4.6 mph - N/A   Scattered Clouds
2:00 AM 69.8 °F 68.0 °F 94% 30.04 in 6.2 mi WSW 3.5 mph - N/A   Scattered Clouds
3:00 AM 69.8 °F 68.0 °F 94% 30.04 in 6.2 mi WSW 4.6 mph - N/A   Scattered Clouds
4:00 AM 69.8 °F 68.0 °F 94% 30.04 in 6.2 mi WSW 5.8 mph - N/A   Scattered Clouds
5:00 AM 68.0 °F 66.2 °F 94% 30.04 in 6.2 mi SSW 5.8 mph - N/A   Scattered Clouds
6:00 AM 68.0 °F 66.2 °F 94% 30.06 in 6.2 mi Variable 1.2 mph - N/A   Mostly Cloudy
7:00 AM 68.0 °F 68.0 °F 100% 30.06 in 4.3 mi WNW 5.8 mph - N/A Rain Rain
8:00 AM 66 °F 66 °F 100%  in 4 mi SSE 3.5 mph - - Rain Rain
8:00 AM 66.2 °F 66.2 °F 100% 30.09 in 3.7 mi SSE 3.5 mph - N/A Rain Rain
9:00 AM 66.2 °F 66.2 °F 100% 30.09 in 3.7 mi South 6.9 mph - N/A Rain Rain
10:00 AM 66.2 °F 66.2 °F 100% 30.09 in - North - - N/A   Mostly Cloudy
11:00 AM 69 °F 68 °F 95%  in 6 mi SE 5.8 mph - -   Partly Cloudy
11:00 AM 69.8 °F 68.0 °F 94% 30.06 in 6.2 mi SE 5.8 mph - N/A   Scattered Clouds
12:00 PM 73.4 °F 68.0 °F 83% 30.06 in 6.2 mi ENE 5.8 mph - N/A   Scattered Clouds
1:00 PM 77.0 °F 68.0 °F 74% 30.04 in 6.2 mi Variable 3.5 mph - N/A   Partly Cloudy
2:00 PM 72 °F 65 °F 73%  in 6 mi North 13.8 mph - -   Partly Cloudy
2:00 PM 71.6 °F 64.4 °F 78% 30.01 in 6.2 mi North 13.8 mph - N/A   Scattered Clouds
3:00 PM 73.4 °F 69.8 °F 88% 29.98 in 6.2 mi North 4.6 mph - N/A Rain , Thunderstorm Light Thunderstorms and Rain
4:00 PM 75.2 °F 68.0 °F 78% 29.98 in 6.2 mi ENE 4.6 mph - N/A   Partly Cloudy
5:00 PM 77.0 °F 69.8 °F 78% 29.98 in 6.2 mi SSE 3.5 mph - N/A   Mostly Cloudy
8:00 PM 73.4 °F 69.8 °F 88% 30.04 in 6.2 mi Variable 2.3 mph - N/A   Scattered Clouds
9:00 PM 71.6 °F 68.0 °F 88% 30.04 in 6.2 mi ENE 4.6 mph - N/A   Scattered Clouds
10:00 PM 69.8 °F 68.0 °F 94% 30.06 in 6.2 mi Variable 2.3 mph - N/A   Scattered Clouds